Location: Tierra Monte Subdivision
(35.2092°N, 106.4864°W)
Time: 15:27:29
(UTC+00:00)

OAO 3 Copernicus - Pass Details

Date: 30 March 2020
Orbit: 695 x 705 km, 35.0° (Epoch: 27 May)

Event Time Altitude Azimuth Distance (km) Brightness Sun altitude
Rises 02:48:16 0° 268° (W) 3,059 9.0 -17.4°
Reaches altitude 10° 02:50:40 10° 269° (W) 2,142 7.9 -17.8°
Maximum altitude 02:55:42 89° 181° (S) 695 4.2 -18.8°
Enters shadow 02:57:38 38° 90° (E) 1,046 4.7 -19.2°
